Eugene, OR

4:58 AM PST on December 15, 2019 (GMT -0800)
Mahlon Sweet

Weather History for KEUG - November, 2019

Change the Weather History Date:

Friday, November 15, 2019

  Actual Average Record
Temperature  
Mean Temperature 52 °F 45 °F  
Max Temperature 59 °F 52 °F 65 °F (1999)
Min Temperature 44 °F 38 °F 14 °F (1955)
Degree Days  
Heating Degree Days 13 20  
Month to date heating degree days 280 276  
Since 1 July heating degree days 876 846  
Cooling Degree Days 0 0  
Month to date cooling degree days 0 0  
Year to date cooling degree days 353 239  
Growing Degree Days 2 (Base 50)    
Moisture  
Dew Point 48 °F    
Average Humidity 87    
Maximum Humidity 93    
Minimum Humidity 80    
Precipitation  
Precipitation 0.33 in 0.25 in 3.61 in (1950)
Month to date precipitation 0.33 3.43  
Year to date precipitation 30.07 33.98  
Sea Level Pressure  
Sea Level Pressure 30.21 in    
Wind  
Wind Speed 7 mph (South)    
Max Wind Speed 12 mph    
Max Gust Speed 13 mph    
Visibility 6 miles    
Events Fog , Rain    
T = Trace of Precipitation, MM = Missing Value Source: NWS Daily Summary

Daily Weather History Graph

Daily Weather History Graph

Search for Another Location

Airport or City:

Astronomy

Nov. 15, 2019 Rise Set
Actual Time 7:08 AM PST 4:46 PM PST
Civil Twilight 6:36 AM PST 5:17 PM PST
Nautical Twilight 6:01 AM PST 5:52 PM PST
Astronomical Twilight 5:27 AM PST 6:26 PM PST
Moon 7:22 PM PST 10:13 AM PST
Length of Visible Light 10h 40m
Length of Day
9h 38m
Waning Gibbous, 89% of the Moon is Illuminated
Nov 15
Waning Gibbous
Nov 19
Last Quarter
Nov 26
New
Dec 3
First Quarter
Dec 11
Full

Hourly Weather History & Observations

Time (PST) Temp. Windchill Dew Point Humidity Pressure Visibility Wind Dir Wind Speed Gust Speed Precip Events Conditions
12:54 AM 46.9 °F - 45.0 °F 93% 30.08 in 6.0 mi SSE 6.9 mph - N/A   Overcast
1:26 AM 46.9 °F - 45.0 °F 93% 30.08 in 3.0 mi SSE 6.9 mph - 0.02 in Rain Light Rain
1:54 AM 48.0 °F - 46.0 °F 93% 30.08 in 4.0 mi SE 5.8 mph - 0.03 in   Overcast
2:26 AM 48.0 °F - 46.0 °F 93% 30.08 in 2.5 mi SSE 8.1 mph - 0.02 in Rain Light Rain
2:39 AM 48.0 °F - 45.0 °F 89% 30.08 in 3.0 mi SE 6.9 mph - 0.03 in Rain Light Rain
2:54 AM 48.0 °F - 45.0 °F 89% 30.08 in 3.0 mi SSE 9.2 mph - 0.06 in Rain Rain
3:54 AM 48.0 °F - 46.9 °F 96% 30.08 in 2.0 mi South 4.6 mph - 0.09 in Rain Rain
4:17 AM 48.0 °F - 46.0 °F 93% 30.08 in 4.0 mi SSE 5.8 mph - 0.05 in Rain Light Rain
4:54 AM 48.9 °F - 46.0 °F 90% 30.10 in 8.0 mi SSE 8.1 mph - 0.05 in Rain Light Rain
5:54 AM 48.9 °F - 46.9 °F 93% 30.12 in 8.0 mi SSE 8.1 mph - 0.04 in Rain Light Rain
6:54 AM 50.0 °F - 48.0 °F 93% 30.13 in 6.0 mi SSE 6.9 mph - 0.03 in Rain Light Rain
7:54 AM 50.0 °F - 48.0 °F 93% 30.16 in 5.0 mi SSE 8.1 mph - 0.01 in   Overcast
8:36 AM 51.1 °F - 48.9 °F 92% 30.17 in 3.0 mi SE 9.2 mph - 0.02 in Rain Light Rain
8:54 AM 51.1 °F - 48.9 °F 92% 30.18 in 4.0 mi SSE 10.4 mph - 0.02 in Rain Light Rain
9:54 AM 53.1 °F - 51.1 °F 93% 30.20 in 10.0 mi SSE 8.1 mph - 0.00 in   Overcast
11:54 AM 57.0 °F - 53.1 °F 87% 30.23 in 10.0 mi South 9.2 mph - N/A   Overcast
12:54 PM 57.9 °F - 53.1 °F 84% 30.23 in 10.0 mi SSW 9.2 mph - N/A   Overcast
1:54 PM 59.0 °F - 53.1 °F 81% 30.22 in 10.0 mi SSW 8.1 mph - N/A   Overcast
2:54 PM 59.0 °F - 53.1 °F 81% 30.24 in 10.0 mi South 4.6 mph - N/A   Overcast
3:54 PM 59.0 °F - 53.1 °F 81% 30.26 in 10.0 mi SW 3.5 mph - N/A   Overcast
4:35 PM 57.9 °F - 53.1 °F 84% 30.26 in 10.0 mi SW 3.5 mph - N/A   Mostly Cloudy
4:54 PM 57.0 °F - 52.0 °F 83% 30.27 in 10.0 mi WSW 3.5 mph - N/A   Mostly Cloudy
5:54 PM 52.0 °F - 50.0 °F 93% 30.28 in 10.0 mi Calm Calm - N/A   Mostly Cloudy
6:54 PM 51.1 °F - 48.9 °F 92% 30.29 in 10.0 mi Calm Calm - N/A   Mostly Cloudy
7:54 PM 50.0 °F - 48.0 °F 93% 30.30 in 7.0 mi SW 4.6 mph - N/A   Mostly Cloudy
8:01 PM 48.2 °F - 46.4 °F 93% 30.29 in 7.0 mi WSW 4.6 mph - N/A Fog Patches of Fog
8:11 PM 46.4 °F 42.9 °F 46.4 °F 100% 30.29 in 1.0 mi SW 6.9 mph - N/A Fog Patches of Fog
8:39 PM 46.4 °F 45.2 °F 46.4 °F 100% 30.29 in 3.0 mi SSW 3.5 mph - N/A Fog Patches of Fog
8:54 PM 48.9 °F - 46.9 °F 93% 30.30 in 6.0 mi South 4.6 mph - N/A   Clear
8:59 PM 44.6 °F - 44.6 °F 100% 30.29 in 1.0 mi Calm Calm - N/A Fog Patches of Fog
9:16 PM 46.0 °F 43.9 °F 43.0 °F 89% 30.29 in 4.0 mi SSE 4.6 mph - N/A   Scattered Clouds
9:36 PM 48.2 °F - 46.4 °F 93% 30.30 in 0.8 mi South 4.6 mph - N/A Fog Patches of Fog
9:54 PM 44.6 °F 41.4 °F 42.8 °F 93% 30.31 in 0.5 mi South 5.8 mph - N/A Fog Fog
10:20 PM 44.6 °F 40.2 °F 42.8 °F 93% 30.31 in 1.0 mi South 8.1 mph - N/A Fog Patches of Fog
10:54 PM 48.0 °F - 46.9 °F 96% 30.32 in 8.0 mi SSW 5.8 mph - N/A   Mostly Cloudy
11:54 PM 48.9 °F - 48.0 °F 97% 30.33 in 10.0 mi South 4.6 mph - N/A   Overcast